Location: Altleiningen
(49.5078°N, 8.0741°E)
Time: 23:32:53
(UTC+00:00)

Terra - Pass Details

Date: 03 March 2021
Orbit: 701 x 703 km, 98.2° (Epoch: 13 April)

Event Time Altitude Azimuth Distance (km) Brightness Sun altitude
Exits shadow 21:21:33 15° 346° (NNW) 1,836 4.4 -38.1°
Drops below altitude 10° 21:22:26 10° 346° (NNW) 2,184 4.9 -38.2°
Sets 21:24:42 0° 347° (NNW) 3,107 5.8 -38.5°
